Location: Cranbrook Institute of Science
(42.5830°N, 83.2450°W)
Time: 23:35:53
(UTC-04:00)

Daily predictions for brighter satellites

Satellite Brightness Start Highest point End
(mag) Time Altitude Azimuth Time Altitude Azimuth Time Altitude Azimuth
Nadezhda 3 Rocket 4.1 20:40:49 10° N 20:47:05 61° E 20:53:21 10° SSE
SL-16 R/B 3.9 20:48:22 10° ESE 20:50:05 11° E 20:51:47 10° ENE
ATLAS CENTAUR R/B 1.1 20:58:33 10° SSW 21:02:08 61° ESE 21:05:54 10° NE
Meteor 2-3 Rocket 3.8 20:59:22 10° N 21:04:56 62° ENE 21:10:31 10° SSE
Cosmos 2228 Rocket 3.7 21:01:11 10° SSE 21:05:08 34° E 21:09:08 10° NNE
SJ-6B 3.4 21:02:25 10° S 21:06:24 63° WSW 21:10:21 10° NNW
H-2A R/B 3.8 21:05:41 10° E 21:08:29 15° ENE 21:11:16 10° NNE
Cosmos 1408 3.5 21:08:25 10° NNE 21:11:43 30° ENE 21:14:42 12° SE
Cosmos 1328 Rocket 3.6 21:08:17 10° S 21:12:38 62° E 21:17:02 10° NNE
Envisat 3.5 21:09:22 10° S 21:14:23 63° W 21:19:27 10° NNW
Cosmos 1980 3.8 21:09:46 10° S 21:15:16 53° ESE 21:20:48 10° NNE
Cosmos 1869 4.4 21:12:26 10° SE 21:15:43 25° E 21:19:02 10° NE
Cosmos 1939 Rocket 2.7 21:13:03 10° SSE 21:16:55 78° ENE 21:20:50 10° N
Cosmos 2251 Rocket 4.4 21:12:16 10° NNW 21:17:28 51° WSW 21:22:37 10° S
NOSS 3 (A) 4.4 21:17:21 10° SSW 21:20:03 59° ESE 21:23:04 10° NE
ERS-2 2.8 21:17:28 10° S 21:21:05 57° WSW 21:24:43 10° NNW
Cosmos 2154 Rocket 4.4 21:19:15 10° SSW 21:25:28 68° W 21:31:41 10° N
Cosmos 1844 Rocket 3.9 21:20:56 10° NW 21:26:12 41° WSW 21:31:26 10° S
Cosmos 1470 Rocket 3.6 21:22:07 10° N 21:26:31 67° E 21:30:55 10° SSE
Cosmos 1455 2.4 21:22:47 10° SSW 21:26:37 77° W 21:30:29 10° N
Cosmos 2056 Rocket 4.2 21:22:47 10° SSE 21:27:34 33° E 21:32:21 10° NE
Cosmos 2333 Rocket 2.4 21:22:42 10° SSW 21:28:21 77° WNW 21:34:02 10° NNE
SL-8 R/B 3.6 21:24:19 10° SW 21:29:05 73° SSE 21:33:53 10° ENE
YAOGAN 6 3.0 21:26:09 10° S 21:29:43 65° W 21:33:21 10° NNW
Resurs 01 Rocket 1.7 21:26:39 10° SSE 21:31:06 86° WSW 21:35:33 10° NNW
SAR-Lupe-3 4.5 21:28:27 10° NNE 21:32:02 65° ESE 21:35:35 10° S
Lacrosse 5 4.2 21:30:21 10° NNW 21:33:38 17° N 21:36:55 10° NE
COSMOS 2428 4.1 21:28:13 10° SW 21:33:39 43° WNW 21:39:07 10° NNE
Cosmos 1892 4.1 21:31:04 10° NNW 21:34:43 39° W 21:38:20 10° SSW
Meteor 1-27 4.4 21:30:14 10° SSW 21:35:57 78° W 21:41:39 10° N
Cosmos 2219 Rocket 3.0 21:33:19 10° SW 21:38:51 54° WNW 21:44:24 10° NNE
Cosmos 2098 Rocket 3.4 21:34:45 10° SSE 21:39:04 39° E 21:42:36 10° NNE
NOSS 0 Rocket 4.0 21:33:09 10° SSW 21:39:19 89° WNW 21:45:35 10° NNE
Cosmos 2237 Rocket 2.1 21:36:41 10° SSW 21:42:18 82° ESE 21:47:57 10° NNE
Cosmos 1624 Rocket 4.2 21:39:19 10° S 21:44:16 47° ESE 21:49:15 10° NNE
Cosmos 405 3.9 21:42:57 10° N 21:46:07 31° ENE 21:46:53 28° E
Cosmos 1190 Rocket 4.5 21:41:12 10° N 21:46:17 44° ENE 21:49:07 24° SE
Genesis I 4.2 21:42:43 10° NW 21:46:38 44° WSW 21:49:41 15° S
ATLAS 5 CENTAUR R/B 4.4 21:46:05 10° N 21:49:16 15° NNE 21:52:38 10° ENE
ATLAS 2AS CENTAUR R/B 3.3 21:42:39 10° NW 21:50:23 62° WSW 21:56:47 13° SSE
Cosmos 2341 Rocket 4.5 21:44:08 10° SSW 21:50:26 65° W 21:56:44 10° N
Cosmos 2278 Rocket 2.3 21:45:57 10° NNW 21:51:38 76° WSW 21:56:09 16° SSE
Cosmos 2218 Rocket 4.0 21:47:10 10° S 21:53:30 76° E 21:59:55 10° N
Cosmos 1151 Rocket 3.3 21:50:27 10° SSW 21:54:41 68° W 21:58:58 10° N
Cosmos 1933 Rocket 3.7 21:50:38 10° NNW 21:55:00 72° W 21:58:46 14° S
NOAA 11 4.3 21:50:59 11° S 21:56:15 80° WSW 22:01:47 10° NNW
Spot 2 Rocket 3.8 21:52:03 10° S 21:57:06 65° WSW 22:02:11 10° NNW
Cosmos 405 Rocket 3.5 22:02:00 33° E 22:02:00 33° E 22:05:31 10° NNE
Cosmos 2366 rocket 3.9 21:57:19 10° S 22:03:32 81° E 22:09:51 10° N
Cosmos 1862 3.8 22:00:59 10° N 22:04:48 40° ENE 22:05:27 37° ESE
Cosmos 1707 Rocket 4.2 22:09:26 34° E 22:09:33 34° E 22:13:28 10° NNE
Cosmos 1825 2.9 22:07:00 10° NNW 22:10:42 51° W 22:13:04 20° SSW
SL-8 Rocket 4.4 22:05:50 10° SSW 22:12:06 67° W 22:18:21 10° N
GEOS 3 Rocket 4.1 22:12:33 10° NE 22:17:28 37° ESE 22:17:47 36° SE
Cosmos 1869 Rocket 3.6 22:13:20 10° N 22:17:40 60° E 22:18:36 47° SE
Helios 1A 3.6 22:18:13 37° E 22:18:35 37° ENE 22:22:29 10° N
Cosmos 1339 Rocket 4.4 22:12:45 10° N 22:18:53 86° W 22:23:00 22° S
NOSS 3-4 (A) 3.8 22:13:59 10° NW 22:21:02 79° NE 22:24:48 33° SE
NOSS 3-4 (C) 3.8 22:14:05 10° NW 22:21:08 79° NE 22:24:54 33° SE
CZ-4C R/B 3.4 22:30:39 24° ENE 22:30:39 24° ENE 22:33:31 10° NE
Cosmos 614 Rocket 4.2 22:24:54 10° NNW 22:30:02 55° ENE 22:31:09 45° ESE
USA 267 3.6 22:24:29 10° ENE 22:30:29 37° SE 22:36:27 10° SSW
ERS-1 Rocket 2.9 22:30:03 46° SSE 22:31:31 75° ENE 22:36:33 10° N
ARGOS 3.2 22:29:23 33° S 22:31:54 78° WSW 22:37:17 10° NNW
MetOp-B 4.1 22:30:03 37° SSE 22:32:17 87° WSW 22:37:40 10° NNW
SL-16 R/B 2.1 22:27:36 10° SSW 22:33:16 86° ESE 22:38:58 10° NNE
Cosmos 1943 Rocket 4.0 22:30:50 10° N 22:34:22 17° NE 22:35:53 15° ENE
Cosmos 407 Rocket 3.6 22:30:52 10° NNW 22:35:58 70° WSW 22:37:42 41° S
DMSP B5D2-2 4.2 22:31:40 10° NNE 22:36:47 49° E 22:37:07 48° ESE
SPOT 1/Viking Rocket 3.8 22:38:29 47° ESE 22:39:19 53° ENE 22:44:24 10° N
USA 81 4.2 22:35:18 10° N 22:40:34 73° W 22:42:46 36° SSW
Cosmos 2344 3.5 22:33:30 10° SSW 22:40:56 60° ESE 22:48:59 10° NE
ATLAS CENTAUR R/B 4.4 22:39:16 10° WNW 22:41:31 15° NW 22:43:51 10° N
Meteor 2-10 Rocket 4.3 22:37:06 10° SSW 22:42:44 58° WNW 22:48:31 10° N
H-2A R/B 2.1 22:45:54 46° S 22:47:21 71° WSW 22:52:20 10° NNW
Cosmos 1933 3.6 22:51:36 62° NNE 22:51:36 62° NNE 22:55:03 10° N
Terra 2.7 22:52:36 35° ENE 22:52:36 35° ENE 22:56:38 10° N
Cosmos 1934 Rocket 4.0 22:55:47 51° ESE 22:56:09 51° E 23:02:00 10° NNE
Cosmos 676 Rocket 4.0 22:52:10 10° NNW 22:57:25 74° WSW 22:58:14 61° SSW
Cosmos 1603 4.3 23:01:42 40° ENE 23:01:42 40° ENE 23:05:49 10° NE
Cosmos 1023 Rocket 4.4 22:59:30 10° NNW 23:04:40 74° WSW 23:05:05 69° SSW
USA 234 4.4 23:00:50 19° ENE 23:04:46 36° NNE 23:10:35 10° NW
Cosmos 2297 4.3 22:59:46 10° NW 23:05:13 49° WSW 23:06:39 40° SSW
Meteor 1-14 Rocket 4.4 23:04:39 10° N 23:09:59 55° ENE 23:09:59 55° ENE
Cosmos 2369 Rocket 2.9 23:04:44 10° NNW 23:10:05 40° ENE 23:10:23 39° ENE
Cosmos 1452 Rocket 3.5 23:09:18 62° SW 23:10:12 80° WNW 23:15:29 10° NNE
SPOT 5 3.0 23:17:03 62° W 23:17:03 62° W 23:21:14 10° NNW
Lacrosse 5 2.8 23:13:09 10° NW 23:17:53 37° NNE 23:18:19 37° NE
CZ-2C R/B 4.1 23:18:12 10° NNE 23:20:56 24° ENE 23:20:56 24° ENE
Cosmos 1821 Rocket 4.2 23:22:08 46° SSW 23:24:03 71° W 23:30:21 10° N
Cosmos 1140 Rocket 4.1 23:22:27 10° NNW 23:27:24 46° WSW 23:27:32 46° WSW
Centaur D-1A AC-31 4.3 23:25:31 10° SW 23:25:38 10° SW 23:25:38 10° SW
Cosmos 1850 Rocket 4.1 23:23:04 10° NNW 23:27:44 70° N 23:27:44 70° N
Helios 1B rocket 3.5 23:27:22 10° N 23:30:32 43° NNW 23:30:32 43° NNW
Meteor 1-25 Rocket 4.2 23:25:48 10° N 23:31:19 78° NE 23:31:19 78° NE
ATLAS 5 CENTAUR R/B 2.8 23:29:31 10° NNW 23:35:15 51° NE 23:35:40 50° ENE
Meteor 1-26 Rocket 4.2 23:36:13 73° W 23:36:15 73° W 23:41:50 10° N
Cosmos 1741 Rocket 4.2 23:31:21 10° NNW 23:36:07 71° NNW 23:36:07 71° NNW
Cosmos 2123 Rocket 3.9 23:35:05 10° N 23:41:25 79° W 23:41:43 77° SW
BREEZE M DEB (TANK) 4.3 23:34:11 10° W 23:45:56 46° NNW 23:47:54 30° NE
RESURS DK-1 4.2 23:42:33 10° NNW 23:44:48 29° N 23:44:48 29° N
